EW7285 Weather Reports


Display with metric or nautical units.
time (UTC)temp
F
wind
direction
speed
MPH
gust
MPH
rain 1hr
in
rain 24hr
in
rain mn
in
humidity
%
barometer
mb
20260508151529 54 160 9.0 15.0 0.00 0.00 0.00 31 1025.2
20260508150030 54 143 9.0 17.0 0.00 0.00 0.00 30 1025.2
20260508144519 54 153 10.0 15.0 0.00 0.00 0.00 31 1025.3
20260508143019 55 143 8.0 19.0 0.00 0.00 0.00 30 1025.2
20260508141516 55 108 5.0 16.0 0.00 0.00 0.00 30 1025.1
20260508140010 55 167 10.0 16.0 0.00 0.00 0.00 31 1025.1
20260508134507 55 146 12.0 20.0 0.00 0.00 0.00 33 1025.1
20260508133007 56 166 7.0 14.0 0.00 0.00 0.00 28 1025.1
20260508131505 56 126 8.0 12.0 0.00 0.00 0.00 29 1025.2
20260508130005 57 59 6.0 14.0 0.00 0.00 0.00 32 1025.2
20260508124503 57 136 5.0 16.0 0.00 0.00 0.00 32 1025.3
20260508123004 56 174 9.0 13.0 0.00 0.00 0.00 34 1025.2
20260508121509 56 96 5.0 14.0 0.00 0.00 0.00 33 1025.3
20260508120001 57 85 4.0 11.0 0.00 0.00 0.00 31 1025.2
20260508114600 56 67 9.0 14.0 0.00 0.00 0.00 36 1025.2
20260508113112 57 166 5.0 23.0 0.00 0.00 0.00 34 1025.2
20260508111604 56 96 6.0 15.0 0.00 0.00 0.00 33 1025.3
20260508110100 56 164 5.0 17.0 0.00 0.00 0.00 37 1025.2
20260508104557 56 186 5.0 15.0 0.00 0.00 0.00 36 1025.2
20260508103056 56 45 5.0 15.0 0.00 0.00 0.00 35 1025.2
20260508101555 56 182 4.0 10.0 0.00 0.00 0.00 36 1025.2
20260508100054 56 82 8.0 10.0 0.00 0.00 0.00 33 1025.3
20260508094553 56 114 3.0 10.0 0.00 0.00 0.00 34 1025.3
20260508093055 56 152 3.0 9.0 0.00 0.00 0.00 34 1025.4
20260508091552 55 67 9.0 14.0 0.00 0.00 0.00 33 1025.4
20260508090047 54 157 2.0 11.0 0.00 0.00 0.00 36 1025.5
20260508084545 54 163 8.0 14.0 0.00 0.00 0.00 36 1025.5
20260508083104 53 159 9.0 15.0 0.00 0.00 0.00 38 1025.4
20260508081542 54 157 3.0 10.0 0.00 0.00 0.00 40 1025.4
20260508080039 53 105 3.0 10.0 0.00 0.00 0.00 37 1025.3
20260508074546 52 153 4.0 11.0 0.00 0.00 0.00 37 1025.3
20260508073037 52 163 6.0 13.0 0.00 0.00 0.00 40 1025.3
20260508071532 52 89 5.0 9.0 0.00 0.00 0.00 39 1025.1
20260508070028 51 86 4.0 10.0 0.00 0.00 0.00 40 1025.0
20260508064524 50 88 3.0 11.0 0.00 0.00 0.00 45 1025.0
20260508063021 49 177 6.0 11.0 0.00 0.00 0.00 48 1024.8
20260508061521 48 130 3.0 9.0 0.00 0.00 0.00 50 1024.6
20260508060014 47 113 4.0 10.0 0.00 0.00 0.00 54 1024.5
20260508054511 46 157 2.0 7.0 0.00 0.00 0.00 59 1024.3
20260508053005 43 170 1.0 2.0 0.00 0.00 0.00 70 1024.3
20260508051601 40 170 1.0 3.0 0.00 0.00 0.00 73 1024.3
20260508050058 38 171 0.0 0.0 0.00 0.00 0.00 81 1024.1
20260508044552 34 171 0.0 0.0 0.00 0.00 0.00 87 1024.0
20260508043056 32 171 0.0 0.0 0.00 0.00 0.00 87 1023.8
20260508041549 31 171 0.0 0.0 0.00 0.00 0.00 87 1023.7
20260508040046 30 170 0.0 0.0 0.00 0.00 0.00 89 1023.5
20260508034545 29 171 0.0 0.0 0.00 0.00 0.00 89 1023.3
20260508033042 28 170 0.0 0.0 0.00 0.00 0.00 89 1023.2
20260508031539 28 170 0.0 0.0 0.00 0.00 0.00 89 1023.0
20260508030044 27 170 0.0 0.0 0.00 0.00 0.00 90 1022.8
20260508024539 27 170 0.0 0.0 0.00 0.00 0.00 89 1022.8
20260508023034 27 170 0.0 0.0 0.00 0.00 0.00 89 1022.7
20260508021536 27 170 0.0 0.0 0.00 0.00 0.00 88 1022.6
20260508020029 27 170 0.0 0.0 0.00 0.00 0.00 88 1022.4
20260508014526 27 170 0.0 0.0 0.00 0.00 0.00 88 1022.3
20260508013035 28 170 0.0 0.0 0.00 0.00 0.00 87 1022.2
20260508011521 28 170 0.0 0.0 0.00 0.00 0.00 86 1022.1
20260508010019 28 170 0.0 0.0 0.00 0.00 0.00 85 1021.9
20260508004531 29 170 0.0 0.0 0.00 0.00 0.00 86 1021.6
20260508003013 29 170 0.0 0.0 0.00 0.00 0.00 84 1021.5
20260508001516 30 170 0.0 0.0 0.00 0.00 0.00 84 1021.3
20260508000007 30 170 0.0 0.0 0.00 0.00 0.00 82 1021.2
20260507234505 31 170 0.0 0.0 0.00 0.00 0.00 82 1021.0
20260507233003 31 170 0.0 0.0 0.00 0.00 0.00 81 1020.9
20260507231559 32 170 0.0 0.0 0.00 0.00 0.00 79 1020.8
20260507230104 32 170 0.0 0.0 0.00 0.00 0.00 79 1020.6
20260507224553 32 170 0.0 0.0 0.00 0.00 0.00 77 1020.5
20260507223051 33 170 0.0 0.0 0.00 0.00 0.00 75 1020.3
20260507221549 34 170 0.0 0.0 0.00 0.00 0.00 73 1020.3
20260507220044 34 170 0.0 1.0 0.00 0.00 0.00 72 1020.2
20260507214604 34 170 0.0 0.0 0.00 0.00 0.00 69 1020.0
20260507213044 35 170 0.0 0.0 0.00 0.00 0.00 68 1019.9
20260507211540 36 170 0.0 0.0 0.00 0.00 0.00 64 1019.8
20260507210049 36 170 0.0 0.0 0.00 0.00 0.00 62 1019.6
20260507204535 37 170 0.0 0.0 0.00 0.00 0.00 61 1019.4
20260507203044 38 170 0.0 0.0 0.00 0.00 0.00 58 1019.3
20260507201535 39 170 0.0 1.0 0.00 0.00 0.00 56 1019.2
20260507200036 41 170 0.0 0.0 0.00 0.00 0.00 54 1019.0
20260507194550 43 170 2.0 4.0 0.00 0.00 0.00 49 1018.7
20260507193033 44 82 0.0 2.0 0.00 0.00 0.00 45 1018.6
20260507191526 45 82 2.0 3.0 0.00 0.00 0.00 42 1018.3
20260507190024 46 82 0.0 2.0 0.00 0.00 0.00 41 1018.0
20260507184521 47 126 0.0 4.0 0.00 0.00 0.00 38 1017.7
20260507183026 48 113 1.0 7.0 0.00 0.00 0.00 37 1017.7
20260507181519 49 151 2.0 9.0 0.00 0.00 0.00 38 1017.5
20260507180017 50 69 6.0 10.0 0.00 0.00 0.00 37 1017.3
20260507174517 51 96 3.0 9.0 0.00 0.00 0.00 33 1017.1
20260507173019 51 66 3.0 8.0 0.00 0.00 0.00 36 1016.8
20260507171510 51 103 1.0 8.0 0.00 0.00 0.00 37 1016.7
20260507170007 51 118 3.0 8.0 0.00 0.00 0.00 35 1016.4
20260507164505 52 72 4.0 10.0 0.00 0.00 0.00 35 1016.2
20260507163003 53 148 1.0 11.0 0.00 0.00 0.00 36 1016.0
20260507161600 52 111 3.0 11.0 0.00 0.00 0.00 36 1015.9
20260507160058 53 155 5.0 15.0 0.00 0.00 0.00 35 1015.8
20260507154605 53 198 10.0 16.0 0.00 0.00 0.00 35 1015.6
20260507153054 55 163 10.0 14.0 0.00 0.00 0.00 34 1015.4